Regional Weather Roundup
Issued by NWS

Home | Current Version | Previous Version | Graphics & Text | Print | Product List | Glossary On
Versions: 1 2 3 4 5 6 7 8 9 10 11 12 13 14 15 16 17 18 19 20 21 22 23 24 25 26 27 28 29 30 31 32 33 34 35 36 37 38 39 40 41 42 43 44 45 46 47 48 49
000
ASUS43 KDMX 180107
RWRIA

WEATHER ROUNDUP FOR IOWA
NATIONAL WEATHER SERVICE DES MOINES IA
700 PM CST WED DEC 17 2014

NOTE: "FAIR" INDICATES FEW OR NO CLOUDS BELOW 12,000 FEET WITH NO
SIGNIFICANT WEATHER AND/OR OBSTRUCTIONS TO VISIBILITY.

* - THESE STATIONS ARE NOT NWS STATIONS...THUS NOT UNDER NWS
QUALITY CONTROL.  THEY ALSO DO NOT REPORT WEATHER SUCH
AS PRECIPITATION OR FOG.

IAZ001>003-012>014-020>022-031>034-043>046-180200-
   NORTHWEST IOWA

CITY           SKY/WX    TMP DP  RH WIND       PRES   REMARKS
CARROLL *      CLEAR     19  16  86 N7        30.26S WCI  10
CHEROKEE *     CLEAR     19  18  93 NE5       30.27F WCI  13
DENISON *      MOCLDY    21  18  86 CALM      30.25R
LE MARS *      CLEAR     19  16  86 NE6       30.26F WCI  11
ORANGE CITY *  CLEAR     21  16  79 NE5       30.25F WCI  15
SHELDON *      CLEAR     14  12  92 N7        30.26F WCI   4
SIOUX CITY     CLOUDY    24  16  71 NE5       30.28S WCI  18
SPENCER        PTCLDY    17  12  80 N5        30.29S WCI  10
STORM LAKE *   CLEAR     19  16  86 NE6       30.26S WCI  11
$$

IAZ055>058-069>071-079>083-090>094-180200-
   SOUTHWEST IOWA

CITY           SKY/WX    TMP DP  RH WIND       PRES   REMARKS
ATLANTIC *     PTCLDY    23  19  86 NE3       30.26S
AUDUBON *      CLEAR     21  16  79 CALM      30.26R
CLARINDA *     CLOUDY    28  23  80 CALM      30.28R
COUNCIL BLFS * CLOUDY    27  19  74 E3        30.24S
CRESTON *      CLOUDY    25  19  80 NE8       30.25F WCI  16
HARLAN  *      PTCLDY    23  23 100 NE5       30.29S WCI  17
LAMONI         CLOUDY    27  19  72 NE8       30.25F WCI  19
RED OAK *      CLOUDY    28  21  74 CALM      30.27R
SHENANDOAH *   CLOUDY    28  21  74 NE5       30.27S WCI  23
$$

IAZ047>049-059>061-072>074-084-180200-
   CENTRAL IOWA

CITY           SKY/WX    TMP DP  RH WIND       PRES   REMARKS
AMES           CLEAR     21  15  78 NE6       30.28F WCI  13
ANKENY *       CLEAR     19  16  86 N3        30.28F
CHARITON *     MOCLDY    25  16  68 NE6       30.27S WCI  18
DES MOINES     CLEAR     24  15  68 NE5       30.28F WCI  18
GRINNELL*      CLEAR     19  14  79 N7        30.28F WCI  10
KNOXVILLE *    CLEAR     23  16  74 CALM      30.28R
MARSHALLTOWN   CLEAR     17  13  84 N7        30.28F WCI   8
PELLA *        CLEAR     21  18  86 N3        30.30S
PERRY *          N/A     23  19  86 CALM      30.27F
$$

IAZ004>006-015-016-023>025-035-036-180200-
   NORTH CENTRAL IOWA

CITY           SKY/WX    TMP DP  RH WIND       PRES   REMARKS
ALGONA *       CLEAR     19  16  86 CALM      30.30F
CLARION *      CLEAR     19  18  93 NW3       30.30S
ESTHERVILLE    PTCLDY    15  12  88 N5        30.28R WCI   8
FORT DODGE *   CLEAR     19  12  73 N3        30.30S
MASON CITY     PTCLDY    14  11  87 W7        30.31R WCI   4
FOREST CITY *  MOCLDY    18  12  79 NW3       30.30R
IOWA FALLS *     N/A     19  18  93 NW3       30.31R
$$

IAZ007>011-017>019-026>030-037>042-050>054-066-180200-
   NORTHEAST IOWA

CITY           SKY/WX    TMP DP  RH WIND       PRES   REMARKS
CEDAR RAPIDS   CLEAR     17  13  84 NW7       30.28S WCI   8
CHARLES CITY * PTCLDY    19  16  86 CALM      30.30R
CLINTON *      CLEAR     18  10  73 N5        30.32S WCI  11
DECORAH *      CLEAR     18  14  86 N5        30.27S WCI  11
DUBUQUE        CLEAR     18  14  84 NW5       30.27R WCI  11
MONTICELLO *   CLEAR     19  18  93 CALM      30.29R
OELWEIN *      CLEAR     19  16  86 N5        30.29R WCI  13
WATERLOO       CLEAR     18  14  84 W5        30.30R WCI  11
$$

IAZ064-065-067-068-078-180200-
   EAST CENTRAL IOWA

CITY           SKY/WX    TMP DP  RH WIND       PRES   REMARKS
DAVENPORT      CLEAR     19  14  81 NW5       30.30S WCI  12
IOWA CITY      CLEAR     23  15  71 NW6       30.31F WCI  16
MT. PLEASANT * CLEAR     23  18  80 CALM      30.30S
MUSCATINE *    CLEAR     23  16  74 NW5       30.31F WCI  17
QUAD CITIES    CLEAR     24  15  68 NW3       30.30S
$$

IAZ062-063-075>077-085>089-095>099-180200-
   SOUTHEAST IOWA

CITY           SKY/WX    TMP DP  RH WIND       PRES   REMARKS
BURLINGTON     CLEAR     24  20  84 CALM      30.29S
FAIRFIELD *    CLEAR     21  18  86 N3        30.30S
FORT MADISON * CLEAR     25  21  86 CALM      30.30S
KEOKUK *       CLEAR     23  19  86 N3        30.28F
OSKALOOSA *      N/A     21  18  86 N5        30.30S WCI  15
CENTERVILLE *  CLEAR     23  18  80 NE6       30.28S WCI  16
OTTUMWA        CLEAR     22  16  78 N7        30.28F WCI  13
WASHINGTON *   CLEAR     23  19  86 N5        30.29S WCI  17
$$

ABBREVIATIONS USED IN REMARKS
   TC - TEMPERATURES IN CELSIUS
  WCI - WIND CHILL INDEX
   HX - HEAT INDEX
  VSB - VISIBILITY
$$



USA.gov is the U.S. government's official web portal to all federal, state and local government web resources and services.